contact:dominique.lefevre@mio.osupytheas.fr, maurice.libes@osupytheas.fr, didier.mallarino@osupytheas.fr
Project:EMSO http://www.emso-fr.org/EMSO-France
Depth: 2436.0 m
Title:EMSO Ligure Ouest : Data MII capteur CSTAR
DateTime,Latitude,Longitude,Instrument_Serial,Reference_Counts,Signal_Counts,Corrected_Signal_raw_counts,Calculated_Beam_c_inverse_meters,Internal_thermistor_counts
DateTime,Latitude,Longitude,Instrument_Serial,Reference_Counts,Signal_Counts,Corrected_Signal_raw_counts,Calculated_Beam_c_inverse_meters,Internal_thermistor_counts
2023-03-07T00:01:38,42.805,6.029,CST-1368DR,4361,4773,11626,01.180,551
2023-03-07T00:04:40,42.805,6.029,CST-1368DR,4361,4774,11628,01.180,551
2023-03-07T00:07:41,42.805,6.029,CST-1368DR,4361,4777,11635,01.177,551
2023-03-07T00:10:43,42.805,6.029,CST-1368DR,4361,4776,11633,01.178,551
2023-03-07T00:13:44,42.805,6.029,CST-1368DR,4361,4776,11634,01.177,551
2023-03-07T00:16:46,42.805,6.029,CST-1368DR,4361,4778,11638,01.176,551
2023-03-07T00:19:47,42.805,6.029,CST-1368DR,4361,4776,11633,01.178,551
2023-03-07T00:22:49,42.805,6.029,CST-1368DR,4361,4776,11633,01.178,551
2023-03-07T00:25:51,42.805,6.029,CST-1368DR,4361,4776,11634,01.177,551
2023-03-07T00:28:52,42.805,6.029,CST-1368DR,4361,4776,11634,01.177,551
2023-03-07T00:31:54,42.805,6.029,CST-1368DR,4361,4776,11634,01.177,551
2023-03-07T00:34:55,42.805,6.029,CST-1368DR,4361,4775,11631,01.178,551
2023-03-07T00:37:57,42.805,6.029,CST-1368DR,4361,4776,11634,01.177,551
2023-03-07T00:40:59,42.805,6.029,CST-1368DR,4361,4776,11634,01.177,551
2023-03-07T00:44:00,42.805,6.029,CST-1368DR,4361,4777,11635,01.177,551
2023-03-07T00:47:02,42.805,6.029,CST-1368DR,4361,4776,11634,01.177,551
2023-03-07T00:50:03,42.805,6.029,CST-1368DR,4361,4777,11636,01.177,551
2023-03-07T00:53:05,42.805,6.029,CST-1368DR,4361,4782,11648,01.173,551
2023-03-07T00:56:06,42.805,6.029,CST-1368DR,4361,4778,11638,01.176,551
2023-03-07T00:59:08,42.805,6.029,CST-1368DR,4361,4778,11638,01.176,551
2023-03-07T01:02:10,42.805,6.029,CST-1368DR,4361,4777,11636,01.177,551
2023-03-07T01:05:11,42.805,6.029,CST-1368DR,4361,4777,11636,01.177,551
2023-03-07T01:08:13,42.805,6.029,CST-1368DR,4361,4778,11638,01.176,551
2023-03-07T01:11:14,42.805,6.029,CST-1368DR,4361,4777,11636,01.177,551
2023-03-07T01:14:16,42.805,6.029,CST-1368DR,4361,4777,11637,01.176,551
2023-03-07T01:17:17,42.805,6.029,CST-1368DR,4361,4778,11638,01.176,551
2023-03-07T01:20:19,42.805,6.029,CST-1368DR,4361,4789,11666,01.166,551
2023-03-07T01:23:21,42.805,6.029,CST-1368DR,4361,4782,11649,01.172,551
2023-03-07T01:26:22,42.805,6.029,CST-1368DR,4361,4781,11647,01.173,551
2023-03-07T01:29:24,42.805,6.029,CST-1368DR,4361,4781,11647,01.173,551
2023-03-07T01:32:25,42.805,6.029,CST-1368DR,4361,4781,11645,01.174,551
2023-03-07T01:35:27,42.805,6.029,CST-1368DR,4361,4783,11651,01.172,551
2023-03-07T01:38:29,42.805,6.029,CST-1368DR,4361,4782,11649,01.172,551
2023-03-07T01:41:30,42.805,6.029,CST-1368DR,4361,4782,11647,01.173,551
2023-03-07T01:44:32,42.805,6.029,CST-1368DR,4361,4779,11641,01.175,551
2023-03-07T01:47:33,42.805,6.029,CST-1368DR,4361,4782,11649,01.172,551
2023-03-07T01:50:35,42.805,6.029,CST-1368DR,4361,4784,11652,01.171,551
2023-03-07T01:53:36,42.805,6.029,CST-1368DR,4361,4783,11650,01.172,551
2023-03-07T01:56:38,42.805,6.029,CST-1368DR,4361,4783,11651,01.172,551
2023-03-07T01:59:40,42.805,6.029,CST-1368DR,4361,4784,11652,01.171,551
2023-03-07T02:02:41,42.805,6.029,CST-1368DR,4361,4783,11650,01.172,551
2023-03-07T02:05:43,42.805,6.029,CST-1368DR,4361,4783,11651,01.172,551
2023-03-07T02:08:44,42.805,6.029,CST-1368DR,4361,4783,11650,01.172,551
2023-03-07T02:11:46,42.805,6.029,CST-1368DR,4361,4783,11650,01.172,551
2023-03-07T02:14:47,42.805,6.029,CST-1368DR,4361,4777,11635,01.177,551
2023-03-07T02:17:49,42.805,6.029,CST-1368DR,4361,4780,11643,01.174,551
2023-03-07T02:20:51,42.805,6.029,CST-1368DR,4361,4781,11645,01.174,551
2023-03-07T02:23:52,42.805,6.029,CST-1368DR,4361,4781,11646,01.173,551
2023-03-07T02:26:54,42.805,6.029,CST-1368DR,4361,4779,11641,01.175,551
2023-03-07T02:29:55,42.805,6.029,CST-1368DR,4361,4781,11645,01.174,551
2023-03-07T02:32:57,42.805,6.029,CST-1368DR,4361,4781,11645,01.174,551
2023-03-07T02:35:59,42.805,6.029,CST-1368DR,4361,4769,11616,01.184,551
2023-03-07T02:39:00,42.805,6.029,CST-1368DR,4361,4774,11628,01.180,551
2023-03-07T02:42:02,42.805,6.029,CST-1368DR,4361,4769,11617,01.183,551
2023-03-07T02:45:03,42.805,6.029,CST-1368DR,4361,4770,11619,01.183,551
2023-03-07T02:48:05,42.805,6.029,CST-1368DR,4361,4764,11605,01.187,551
2023-03-07T02:51:06,42.805,6.029,CST-1368DR,4361,4773,11626,01.180,551
2023-03-07T02:54:08,42.805,6.029,CST-1368DR,4361,4771,11622,01.182,551
2023-03-07T02:57:10,42.805,6.029,CST-1368DR,4361,4773,11627,01.180,551
2023-03-07T03:00:11,42.805,6.029,CST-1368DR,4361,4769,11617,01.183,551
2023-03-07T03:03:13,42.805,6.029,CST-1368DR,4361,4768,11614,01.184,551
2023-03-07T03:06:14,42.805,6.029,CST-1368DR,4361,4767,11611,01.185,551
2023-03-07T03:09:16,42.805,6.029,CST-1368DR,4361,4765,11608,01.186,551
2023-03-07T03:12:17,42.805,6.029,CST-1368DR,4361,4776,11634,01.177,551
2023-03-07T03:15:19,42.805,6.029,CST-1368DR,4361,4779,11640,01.175,551
2023-03-07T03:18:21,42.805,6.029,CST-1368DR,4361,4781,11645,01.174,551
2023-03-07T03:21:22,42.805,6.029,CST-1368DR,4361,4780,11642,01.175,551
2023-03-07T03:24:24,42.805,6.029,CST-1368DR,4361,4776,11633,01.178,551
2023-03-07T03:27:25,42.805,6.029,CST-1368DR,4361,4776,11634,01.177,551
2023-03-07T03:30:27,42.805,6.029,CST-1368DR,4361,4777,11637,01.176,551
2023-03-07T03:33:29,42.805,6.029,CST-1368DR,4361,4772,11624,01.181,551
2023-03-07T03:36:30,42.805,6.029,CST-1368DR,4361,4775,11632,01.178,551
2023-03-07T03:39:32,42.805,6.029,CST-1368DR,4361,4778,11638,01.176,551
2023-03-07T03:42:33,42.805,6.029,CST-1368DR,4361,4774,11630,01.179,551
2023-03-07T03:45:35,42.805,6.029,CST-1368DR,4361,4777,11637,01.176,551
2023-03-07T03:48:36,42.805,6.029,CST-1368DR,4361,4778,11638,01.176,551
2023-03-07T03:51:38,42.805,6.029,CST-1368DR,4361,4780,11644,01.174,551
2023-03-07T03:54:40,42.805,6.029,CST-1368DR,4361,4761,11596,01.191,551
2023-03-07T03:57:41,42.805,6.029,CST-1368DR,4361,4775,11631,01.178,551
2023-03-07T04:00:43,42.805,6.029,CST-1368DR,4361,4774,11628,01.180,551
2023-03-07T04:03:44,42.805,6.029,CST-1368DR,4361,4774,11628,01.180,551
2023-03-07T04:06:46,42.805,6.029,CST-1368DR,4361,4770,11620,01.182,551
2023-03-07T04:09:47,42.805,6.029,CST-1368DR,4361,4771,11622,01.182,551
2023-03-07T04:12:49,42.805,6.029,CST-1368DR,4361,4772,11625,01.181,551
2023-03-07T04:15:51,42.805,6.029,CST-1368DR,4361,4770,11619,01.183,551
2023-03-07T04:18:52,42.805,6.029,CST-1368DR,4361,4770,11619,01.183,551
2023-03-07T04:21:54,42.805,6.029,CST-1368DR,4361,4773,11626,01.180,551
2023-03-07T04:24:55,42.805,6.029,CST-1368DR,4361,4772,11625,01.181,551
2023-03-07T04:27:57,42.805,6.029,CST-1368DR,4361,4768,11613,01.185,551
2023-03-07T04:30:58,42.805,6.029,CST-1368DR,4361,4769,11617,01.183,551
2023-03-07T04:34:00,42.805,6.029,CST-1368DR,4361,4773,11627,01.180,551
2023-03-07T04:37:02,42.805,6.029,CST-1368DR,4361,4771,11622,01.182,551
2023-03-07T04:40:03,42.805,6.029,CST-1368DR,4361,4767,11611,01.185,551
2023-03-07T04:43:05,42.805,6.029,CST-1368DR,4361,4769,11616,01.184,551
2023-03-07T04:46:06,42.805,6.029,CST-1368DR,4361,4771,11621,01.182,551
2023-03-07T04:49:08,42.805,6.029,CST-1368DR,4361,4768,11613,01.185,551
2023-03-07T04:52:10,42.805,6.029,CST-1368DR,4361,4769,11616,01.184,551
2023-03-07T04:55:11,42.805,6.029,CST-1368DR,4361,4772,11624,01.181,551
2023-03-07T04:58:13,42.805,6.029,CST-1368DR,4361,4775,11630,01.179,551
2023-03-07T05:01:14,42.805,6.029,CST-1368DR,4361,4775,11631,01.178,551
2023-03-07T05:04:16,42.805,6.029,CST-1368DR,4361,4775,11631,01.178,551
2023-03-07T05:07:17,42.805,6.029,CST-1368DR,4361,4773,11627,01.180,551
2023-03-07T05:10:19,42.805,6.029,CST-1368DR,4361,4769,11616,01.184,551
2023-03-07T05:13:21,42.805,6.029,CST-1368DR,4361,4777,11636,01.177,551
2023-03-07T05:16:22,42.805,6.029,CST-1368DR,4361,4773,11626,01.180,551
2023-03-07T05:19:24,42.805,6.029,CST-1368DR,4361,4776,11633,01.178,551
2023-03-07T05:22:25,42.805,6.029,CST-1368DR,4361,4773,11627,01.180,551
2023-03-07T05:25:27,42.805,6.029,CST-1368DR,4361,4774,11628,01.180,551
2023-03-07T05:28:28,42.805,6.029,CST-1368DR,4361,4774,11628,01.180,551
2023-03-07T05:31:30,42.805,6.029,CST-1368DR,4361,4775,11630,01.179,551
2023-03-07T05:34:32,42.805,6.029,CST-1368DR,4361,4778,11639,01.176,551
2023-03-07T05:37:33,42.805,6.029,CST-1368DR,4361,4774,11629,01.179,551
2023-03-07T05:40:35,42.805,6.029,CST-1368DR,4361,4774,11628,01.180,551
2023-03-07T05:43:36,42.805,6.029,CST-1368DR,4361,4766,11610,01.186,551
2023-03-07T05:46:38,42.805,6.029,CST-1368DR,4361,4774,11630,01.179,551
2023-03-07T05:49:39,42.805,6.029,CST-1368DR,4361,4774,11628,01.180,551
2023-03-07T05:52:41,42.805,6.029,CST-1368DR,4361,4769,11617,01.183,551
2023-03-07T05:55:43,42.805,6.029,CST-1368DR,4361,4776,11633,01.178,551
2023-03-07T05:58:44,42.805,6.029,CST-1368DR,4361,4771,11622,01.182,551
2023-03-07T06:01:46,42.805,6.029,CST-1368DR,4361,4777,11636,01.177,551
2023-03-07T06:04:47,42.805,6.029,CST-1368DR,4361,4776,11633,01.178,551
2023-03-07T06:07:49,42.805,6.029,CST-1368DR,4361,4774,11628,01.180,551
2023-03-07T06:10:51,42.805,6.029,CST-1368DR,4361,4768,11614,01.184,551
2023-03-07T06:13:52,42.805,6.029,CST-1368DR,4361,4774,11628,01.180,551
2023-03-07T06:16:54,42.805,6.029,CST-1368DR,4361,4771,11622,01.182,551
2023-03-07T06:19:55,42.805,6.029,CST-1368DR,4361,4773,11625,01.181,551
2023-03-07T06:22:57,42.805,6.029,CST-1368DR,4361,4765,11608,01.186,551
2023-03-07T06:25:58,42.805,6.029,CST-1368DR,4361,4766,11610,01.186,551
2023-03-07T06:29:00,42.805,6.029,CST-1368DR,4361,4767,11611,01.185,551
2023-03-07T06:32:02,42.805,6.029,CST-1368DR,4361,4773,11625,01.181,551
2023-03-07T06:35:03,42.805,6.029,CST-1368DR,4361,4773,11627,01.180,551
2023-03-07T06:38:05,42.805,6.029,CST-1368DR,4361,4772,11625,01.181,551
2023-03-07T06:41:06,42.805,6.029,CST-1368DR,4361,4770,11618,01.183,551
2023-03-07T06:44:08,42.805,6.029,CST-1368DR,4361,4764,11604,01.188,551
2023-03-07T06:47:09,42.805,6.029,CST-1368DR,4361,4768,11614,01.184,551
2023-03-07T06:50:11,42.805,6.029,CST-1368DR,4361,4777,11636,01.177,551
2023-03-07T06:53:13,42.805,6.029,CST-1368DR,4361,4773,11625,01.181,551
2023-03-07T06:56:14,42.805,6.029,CST-1368DR,4361,4773,11626,01.180,551
2023-03-07T06:59:16,42.805,6.029,CST-1368DR,4361,4772,11624,01.181,551
2023-03-07T07:02:17,42.805,6.029,CST-1368DR,4361,4774,11629,01.179,551
2023-03-07T07:05:19,42.805,6.029,CST-1368DR,4361,4774,11628,01.180,551
2023-03-07T07:08:21,42.805,6.029,CST-1368DR,4361,4775,11630,01.179,551
2023-03-07T07:11:22,42.805,6.029,CST-1368DR,4361,4767,11611,01.185,551
2023-03-07T07:14:24,42.805,6.029,CST-1368DR,4361,4770,11619,01.183,551
2023-03-07T07:17:25,42.805,6.029,CST-1368DR,4361,4776,11634,01.177,551
2023-03-07T07:20:27,42.805,6.029,CST-1368DR,4361,4764,11603,01.188,551
2023-03-07T07:23:28,42.805,6.029,CST-1368DR,4361,4767,11611,01.185,551
2023-03-07T07:26:30,42.805,6.029,CST-1368DR,4361,4773,11627,01.180,551
2023-03-07T07:29:32,42.805,6.029,CST-1368DR,4361,4766,11610,01.186,551
2023-03-07T07:32:33,42.805,6.029,CST-1368DR,4361,4768,11614,01.184,551
2023-03-07T07:35:35,42.805,6.029,CST-1368DR,4361,4771,11620,01.182,551
2023-03-07T07:38:36,42.805,6.029,CST-1368DR,4361,4778,11638,01.176,551
2023-03-07T07:41:38,42.805,6.029,CST-1368DR,4361,4769,11616,01.184,551
2023-03-07T07:44:40,42.805,6.029,CST-1368DR,4361,4773,11626,01.180,551
2023-03-07T07:47:41,42.805,6.029,CST-1368DR,4361,4768,11614,01.184,551
2023-03-07T07:50:43,42.805,6.029,CST-1368DR,4361,4771,11621,01.182,551
2023-03-07T07:53:44,42.805,6.029,CST-1368DR,4361,4773,11625,01.181,551
2023-03-07T07:56:46,42.805,6.029,CST-1368DR,4361,4769,11616,01.184,551
2023-03-07T07:59:47,42.805,6.029,CST-1368DR,4361,4773,11627,01.180,551
2023-03-07T08:02:49,42.805,6.029,CST-1368DR,4361,4773,11625,01.181,551
2023-03-07T08:05:51,42.805,6.029,CST-1368DR,4361,4774,11628,01.180,551
2023-03-07T08:08:52,42.805,6.029,CST-1368DR,4361,4769,11617,01.183,551
2023-03-07T08:11:54,42.805,6.029,CST-1368DR,4361,4771,11622,01.182,551
2023-03-07T08:14:55,42.805,6.029,CST-1368DR,4361,4779,11641,01.175,551
2023-03-07T08:17:57,42.805,6.029,CST-1368DR,4361,4776,11634,01.177,551
2023-03-07T08:20:58,42.805,6.029,CST-1368DR,4361,4773,11627,01.180,551
2023-03-07T08:24:00,42.805,6.029,CST-1368DR,4361,4770,11618,01.183,551
2023-03-07T08:27:02,42.805,6.029,CST-1368DR,4361,4770,11619,01.183,551
2023-03-07T08:30:03,42.805,6.029,CST-1368DR,4361,4772,11624,01.181,551
2023-03-07T08:33:05,42.805,6.029,CST-1368DR,4361,4773,11625,01.181,551
2023-03-07T08:36:06,42.805,6.029,CST-1368DR,4361,4781,11646,01.173,551
2023-03-07T08:39:08,42.805,6.029,CST-1368DR,4361,4769,11616,01.184,551
2023-03-07T08:42:10,42.805,6.029,CST-1368DR,4361,4774,11629,01.179,551
2023-03-07T08:45:11,42.805,6.029,CST-1368DR,4361,4780,11642,01.175,551
2023-03-07T08:48:13,42.805,6.029,CST-1368DR,4361,4775,11632,01.178,551
2023-03-07T08:51:14,42.805,6.029,CST-1368DR,4361,4777,11636,01.177,551
2023-03-07T08:54:16,42.805,6.029,CST-1368DR,4361,4773,11626,01.180,551
2023-03-07T08:57:17,42.805,6.029,CST-1368DR,4361,4772,11625,01.181,551
2023-03-07T09:00:19,42.805,6.029,CST-1368DR,4361,4779,11641,01.175,551
2023-03-07T09:03:21,42.805,6.029,CST-1368DR,4361,4774,11628,01.180,551
2023-03-07T09:06:22,42.805,6.029,CST-1368DR,4361,4775,11631,01.178,551
2023-03-07T09:09:24,42.805,6.029,CST-1368DR,4361,4787,11659,01.169,551
2023-03-07T09:12:25,42.805,6.029,CST-1368DR,4361,4800,11692,01.158,551
2023-03-07T09:15:27,42.805,6.029,CST-1368DR,4361,4795,11680,01.162,551
2023-03-07T09:18:28,42.805,6.029,CST-1368DR,4361,4794,11677,01.163,551
2023-03-07T09:21:30,42.805,6.029,CST-1368DR,4361,4796,11682,01.161,551
2023-03-07T09:24:32,42.805,6.029,CST-1368DR,4361,4800,11693,01.157,551
2023-03-07T09:27:33,42.805,6.029,CST-1368DR,4361,4794,11678,01.162,551
2023-03-07T09:30:35,42.805,6.029,CST-1368DR,4361,4796,11683,01.161,551
2023-03-07T09:33:36,42.805,6.029,CST-1368DR,4361,4800,11692,01.158,551
2023-03-07T09:36:38,42.805,6.029,CST-1368DR,4361,4796,11683,01.161,551
2023-03-07T09:39:40,42.805,6.029,CST-1368DR,4361,4797,11684,01.160,551
2023-03-07T09:42:41,42.805,6.029,CST-1368DR,4361,4795,11679,01.162,551
2023-03-07T09:45:43,42.805,6.029,CST-1368DR,4361,4797,11684,01.160,551
2023-03-07T09:48:44,42.805,6.029,CST-1368DR,4361,4796,11683,01.161,551
2023-03-07T09:51:46,42.805,6.029,CST-1368DR,4361,4794,11677,01.163,551
2023-03-07T09:54:47,42.805,6.029,CST-1368DR,4361,4794,11677,01.163,551
2023-03-07T09:57:49,42.805,6.029,CST-1368DR,4361,4795,11680,01.162,551
2023-03-07T10:00:51,42.805,6.029,CST-1368DR,4361,4795,11680,01.162,551
2023-03-07T10:03:52,42.805,6.029,CST-1368DR,4361,4798,11686,01.160,551
2023-03-07T10:06:54,42.805,6.029,CST-1368DR,4361,4796,11683,01.161,551
2023-03-07T10:09:55,42.805,6.029,CST-1368DR,4361,4793,11675,01.163,551
2023-03-07T10:12:57,42.805,6.029,CST-1368DR,4361,4799,11689,01.159,551
2023-03-07T10:15:58,42.805,6.029,CST-1368DR,4361,4797,11684,01.160,551
2023-03-07T10:19:00,42.805,6.029,CST-1368DR,4361,4798,11686,01.160,551
2023-03-07T10:22:02,42.805,6.029,CST-1368DR,4361,4797,11684,01.160,551
2023-03-07T10:25:03,42.805,6.029,CST-1368DR,4361,4798,11687,01.159,551
2023-03-07T10:28:05,42.805,6.029,CST-1368DR,4361,4798,11687,01.159,551
2023-03-07T10:31:06,42.805,6.029,CST-1368DR,4361,4799,11690,01.158,551
2023-03-07T10:34:08,42.805,6.029,CST-1368DR,4361,4798,11687,01.159,551
2023-03-07T10:37:09,42.805,6.029,CST-1368DR,4361,4795,11680,01.162,551
2023-03-07T10:40:11,42.805,6.029,CST-1368DR,4361,4793,11674,01.164,551
2023-03-07T10:43:13,42.805,6.029,CST-1368DR,4361,4794,11678,01.162,551
2023-03-07T10:46:14,42.805,6.029,CST-1368DR,4361,4796,11682,01.161,551
2023-03-07T10:49:16,42.805,6.029,CST-1368DR,4361,4796,11683,01.161,551
2023-03-07T10:52:17,42.805,6.029,CST-1368DR,4361,4797,11684,01.160,551
2023-03-07T10:55:19,42.805,6.029,CST-1368DR,4361,4797,11684,01.160,551
2023-03-07T10:58:21,42.805,6.029,CST-1368DR,4361,4796,11683,01.161,551
2023-03-07T11:01:22,42.805,6.029,CST-1368DR,4361,4799,11690,01.158,551
2023-03-07T11:04:24,42.805,6.029,CST-1368DR,4361,4799,11689,01.159,551
2023-03-07T11:07:25,42.805,6.029,CST-1368DR,4361,4795,11680,01.162,551
2023-03-07T11:10:27,42.805,6.029,CST-1368DR,4361,4795,11679,01.162,551
2023-03-07T11:13:28,42.805,6.029,CST-1368DR,4361,4792,11673,01.164,551
2023-03-07T11:16:30,42.805,6.029,CST-1368DR,4361,4797,11684,01.160,551
2023-03-07T11:19:32,42.805,6.029,CST-1368DR,4361,4796,11683,01.161,551
2023-03-07T11:22:33,42.805,6.029,CST-1368DR,4361,4797,11684,01.160,551
2023-03-07T11:25:35,42.805,6.029,CST-1368DR,4361,4795,11680,01.162,551
2023-03-07T11:28:36,42.805,6.029,CST-1368DR,4361,4798,11687,01.159,551
2023-03-07T11:31:38,42.805,6.029,CST-1368DR,4361,4796,11682,01.161,551
2023-03-07T11:34:39,42.805,6.029,CST-1368DR,4361,4793,11675,01.163,551
2023-03-07T11:37:41,42.805,6.029,CST-1368DR,4361,4794,11678,01.162,551
2023-03-07T11:40:43,42.805,6.029,CST-1368DR,4361,4798,11686,01.160,551
2023-03-07T11:43:44,42.805,6.029,CST-1368DR,4361,4798,11688,01.159,551
2023-03-07T11:46:46,42.805,6.029,CST-1368DR,4361,4794,11678,01.162,551
2023-03-07T11:49:47,42.805,6.029,CST-1368DR,4361,4796,11683,01.161,551
2023-03-07T11:52:49,42.805,6.029,CST-1368DR,4361,4798,11687,01.159,551
2023-03-07T11:55:50,42.805,6.029,CST-1368DR,4361,4796,11683,01.161,551
2023-03-07T11:58:52,42.805,6.029,CST-1368DR,4361,4794,11678,01.162,551
2023-03-07T12:01:54,42.805,6.029,CST-1368DR,4361,4795,11680,01.162,551
2023-03-07T12:04:55,42.805,6.029,CST-1368DR,4361,4795,11679,01.162,551
2023-03-07T12:07:57,42.805,6.029,CST-1368DR,4361,4792,11673,01.164,551
2023-03-07T12:10:58,42.805,6.029,CST-1368DR,4361,4794,11677,01.163,551
2023-03-07T12:14:00,42.805,6.029,CST-1368DR,4361,4797,11686,01.160,551
2023-03-07T12:17:02,42.805,6.029,CST-1368DR,4361,4796,11682,01.161,551
2023-03-07T12:20:03,42.805,6.029,CST-1368DR,4361,4791,11671,01.165,551
2023-03-07T12:23:05,42.805,6.029,CST-1368DR,4361,4800,11693,01.157,551
2023-03-07T12:26:06,42.805,6.029,CST-1368DR,4361,4796,11683,01.161,551
2023-03-07T12:29:08,42.805,6.029,CST-1368DR,4361,4798,11686,01.160,551
2023-03-07T12:32:09,42.805,6.029,CST-1368DR,4361,4793,11674,01.164,551
2023-03-07T12:35:11,42.805,6.029,CST-1368DR,4361,4793,11675,01.163,551
2023-03-07T12:38:13,42.805,6.029,CST-1368DR,4361,4798,11686,01.160,551
2023-03-07T12:41:14,42.805,6.029,CST-1368DR,4361,4796,11681,01.161,551
2023-03-07T12:44:16,42.805,6.029,CST-1368DR,4361,4793,11676,01.163,551
2023-03-07T12:47:17,42.805,6.029,CST-1368DR,4361,4788,11663,01.167,551
2023-03-07T12:50:19,42.805,6.029,CST-1368DR,4361,4787,11659,01.169,551
2023-03-07T12:53:21,42.805,6.029,CST-1368DR,4361,4789,11666,01.166,551
2023-03-07T12:56:22,42.805,6.029,CST-1368DR,4361,4788,11663,01.167,551
2023-03-07T12:59:24,42.805,6.029,CST-1368DR,4361,4792,11673,01.164,551
2023-03-07T13:02:25,42.805,6.029,CST-1368DR,4361,4789,11666,01.166,551
2023-03-07T13:05:27,42.805,6.029,CST-1368DR,4361,4789,11666,01.166,551
2023-03-07T13:08:28,42.805,6.029,CST-1368DR,4361,4788,11662,01.168,551
2023-03-07T13:11:30,42.805,6.029,CST-1368DR,4361,4790,11667,01.166,551
2023-03-07T13:14:32,42.805,6.029,CST-1368DR,4361,4792,11673,01.164,551
2023-03-07T13:17:33,42.805,6.029,CST-1368DR,4361,4796,11681,01.161,551
2023-03-07T13:20:35,42.805,6.029,CST-1368DR,4361,4788,11662,01.168,551
2023-03-07T13:23:36,42.805,6.029,CST-1368DR,4361,4790,11667,01.166,551
2023-03-07T13:26:38,42.805,6.029,CST-1368DR,4361,4796,11683,01.161,551
2023-03-07T13:29:39,42.805,6.029,CST-1368DR,4361,4793,11675,01.163,551
2023-03-07T13:32:41,42.805,6.029,CST-1368DR,4361,4792,11673,01.164,551
2023-03-07T13:35:43,42.805,6.029,CST-1368DR,4361,4790,11669,01.165,551
2023-03-07T13:38:44,42.805,6.029,CST-1368DR,4361,4795,11679,01.162,551
2023-03-07T13:41:46,42.805,6.029,CST-1368DR,4361,4791,11669,01.165,551
2023-03-07T13:44:47,42.805,6.029,CST-1368DR,4361,4792,11672,01.164,551
2023-03-07T13:47:49,42.805,6.029,CST-1368DR,4361,4793,11674,01.164,551
2023-03-07T13:50:51,42.805,6.029,CST-1368DR,4361,4790,11667,01.166,551
2023-03-07T13:53:52,42.805,6.029,CST-1368DR,4361,4793,11675,01.163,551
2023-03-07T13:56:54,42.805,6.029,CST-1368DR,4361,4789,11666,01.166,551
2023-03-07T13:59:55,42.805,6.029,CST-1368DR,4361,4791,11670,01.165,551
2023-03-07T14:02:57,42.805,6.029,CST-1368DR,4361,4793,11675,01.163,551
2023-03-07T14:05:58,42.805,6.029,CST-1368DR,4361,4795,11679,01.162,551
2023-03-07T14:09:00,42.805,6.029,CST-1368DR,4361,4793,11674,01.164,551
2023-03-07T14:12:02,42.805,6.029,CST-1368DR,4361,4791,11670,01.165,551
2023-03-07T14:15:03,42.805,6.029,CST-1368DR,4361,4794,11678,01.162,551
2023-03-07T14:18:05,42.805,6.029,CST-1368DR,4361,4794,11678,01.162,551
2023-03-07T14:21:06,42.805,6.029,CST-1368DR,4361,4799,11690,01.158,551
2023-03-07T14:24:08,42.805,6.029,CST-1368DR,4361,4794,11676,01.163,551
2023-03-07T14:27:09,42.805,6.029,CST-1368DR,4361,4793,11676,01.163,551
2023-03-07T14:30:11,42.805,6.029,CST-1368DR,4361,4797,11684,01.160,551
2023-03-07T14:33:13,42.805,6.029,CST-1368DR,4361,4795,11680,01.162,551
2023-03-07T14:36:14,42.805,6.029,CST-1368DR,4361,4795,11679,01.162,551
2023-03-07T14:39:16,42.805,6.029,CST-1368DR,4361,4793,11674,01.164,551
2023-03-07T14:42:17,42.805,6.029,CST-1368DR,4361,4791,11670,01.165,551
2023-03-07T14:45:19,42.805,6.029,CST-1368DR,4361,4771,11620,01.182,551
2023-03-07T14:48:20,42.805,6.029,CST-1368DR,4361,4791,11670,01.165,551
2023-03-07T14:51:22,42.805,6.029,CST-1368DR,4361,4797,11684,01.160,551
2023-03-07T14:54:24,42.805,6.029,CST-1368DR,4361,4797,11686,01.160,551
2023-03-07T14:57:25,42.805,6.029,CST-1368DR,4361,4797,11684,01.160,551
2023-03-07T15:00:27,42.805,6.029,CST-1368DR,4361,4796,11683,01.161,551
2023-03-07T15:03:28,42.805,6.029,CST-1368DR,4361,4796,11681,01.161,551
2023-03-07T15:06:30,42.805,6.029,CST-1368DR,4361,4789,11666,01.166,551
2023-03-07T15:09:32,42.805,6.029,CST-1368DR,4361,4794,11678,01.162,551
2023-03-07T15:12:33,42.805,6.029,CST-1368DR,4361,4790,11667,01.166,551
2023-03-07T15:15:35,42.805,6.029,CST-1368DR,4361,4790,11667,01.166,551
2023-03-07T15:18:36,42.805,6.029,CST-1368DR,4361,4787,11659,01.169,551
2023-03-07T15:21:38,42.805,6.029,CST-1368DR,4361,4788,11662,01.168,551
2023-03-07T15:24:39,42.805,6.029,CST-1368DR,4361,4790,11667,01.166,551
2023-03-07T15:27:41,42.805,6.029,CST-1368DR,4361,4794,11678,01.162,551
2023-03-07T15:30:43,42.805,6.029,CST-1368DR,4361,4794,11678,01.162,551
2023-03-07T15:33:44,42.805,6.029,CST-1368DR,4361,4791,11670,01.165,551
2023-03-07T15:36:46,42.805,6.029,CST-1368DR,4361,4793,11676,01.163,551
2023-03-07T15:39:47,42.805,6.029,CST-1368DR,4361,4795,11679,01.162,551
2023-03-07T15:42:49,42.805,6.029,CST-1368DR,4361,4793,11675,01.163,551
2023-03-07T15:45:50,42.805,6.029,CST-1368DR,4361,4792,11673,01.164,551
2023-03-07T15:48:52,42.805,6.029,CST-1368DR,4361,4793,11676,01.163,551
2023-03-07T15:51:54,42.805,6.029,CST-1368DR,4361,4790,11667,01.166,551
2023-03-07T15:54:55,42.805,6.029,CST-1368DR,4361,4794,11676,01.163,551
2023-03-07T15:57:57,42.805,6.029,CST-1368DR,4361,4794,11677,01.163,551
2023-03-07T16:00:58,42.805,6.029,CST-1368DR,4361,4792,11673,01.164,551
2023-03-07T16:04:00,42.805,6.029,CST-1368DR,4361,4793,11675,01.163,551
2023-03-07T16:07:02,42.805,6.029,CST-1368DR,4361,4790,11669,01.165,551
2023-03-07T16:10:03,42.805,6.029,CST-1368DR,4361,4796,11681,01.161,551
2023-03-07T16:13:05,42.805,6.029,CST-1368DR,4361,4790,11668,01.166,551
2023-03-07T16:16:06,42.805,6.029,CST-1368DR,4361,4794,11677,01.163,551
2023-03-07T16:19:08,42.805,6.029,CST-1368DR,4361,4790,11667,01.166,551
2023-03-07T16:22:09,42.805,6.029,CST-1368DR,4361,4785,11655,01.170,551
2023-03-07T16:25:11,42.805,6.029,CST-1368DR,4361,4791,11669,01.165,551
2023-03-07T16:28:13,42.805,6.029,CST-1368DR,4361,4787,11661,01.168,551
2023-03-07T16:31:14,42.805,6.029,CST-1368DR,4361,4791,11670,01.165,551
2023-03-07T16:34:16,42.805,6.029,CST-1368DR,4361,4788,11663,01.167,551
2023-03-07T16:37:17,42.805,6.029,CST-1368DR,4361,4783,11651,01.172,551